FW0887 Weather Reports


time (UTC)temp
C
wind
direction
speed
KPH
gust
KPH
rain 1hr
cm
rain 24hr
cm
rain mn
cm
humidity
%
barometer
mb
20190418110226 16 112 8.0 19.3 0.00 0.00 0.00 44 1027.2
20190418110217 16 124 8.0 19.3 0.00 0.00 0.00 43 1027.2
20190418104631 16 40 6.4 17.7 0.00 0.00 0.00 44 1027.0
20190418103044 16 111 8.0 20.9 0.00 0.00 0.00 45 1027.2
20190418101538 16 134 3.2 16.1 0.00 0.00 0.00 53 1027.3
20190418100406 15 135 11.3 22.5 0.00 0.00 0.00 46 1027.2
20190418100031 15 92 8.0 22.5 0.00 0.00 0.00 45 1027.4
20190418094510 15 331 8.0 20.9 0.00 0.00 0.00 48 1027.4
20190418090252 14 202 4.8 9.7 0.00 0.00 0.00 53 1027.3
20190418083150 13 103 8.0 22.5 0.00 0.00 0.00 54 1027.5
20190418081550 13 75 6.4 19.3 0.00 0.00 0.00 55 1027.5
20190418080054 13 159 1.6 12.9 0.00 0.00 0.00 57 1027.5
20190418074533 12 109 4.8 17.7 0.00 0.00 0.00 56 1027.5
20190418073135 12 135 3.2 8.0 0.00 0.00 0.00 58 1027.1
20190418073052 12 130 1.6 25.7 0.00 0.00 0.00 57 1027.5
20190418071631 11 346 6.4 16.1 0.00 0.00 0.00 57 1027.5
20190418070158 11 342 1.6 9.7 0.00 0.00 0.00 57 1027.4
20190418064541 11 57 1.6 14.5 0.00 0.00 0.00 58 1027.4
20190418063017 10 342 1.6 12.9 0.00 0.00 0.00 59 1027.3
20190418061538 10 120 0.0 12.9 0.00 0.00 0.00 59 1027.3
20190418060017 9 0 1.6 3.2 0.00 0.00 0.00 63 1026.7
20190418053149 7 209 0.0 3.2 0.00 0.00 0.00 68 1027.0
20190418053104 7 209 0.0 3.2 0.00 0.00 0.00 68 1027.1
20190418051627 7 210 0.0 3.2 0.00 0.00 0.00 68 1027.0
20190418050034 6 210 0.0 1.6 0.00 0.00 0.00 70 1026.9
20190418044516 6 209 0.0 3.2 0.00 0.00 0.00 71 1026.7
20190418043024 6 304 0.0 3.2 0.00 0.00 0.00 72 1026.5
20190418041535 5 304 0.0 3.2 0.00 0.00 0.00 73 1026.3
20190418040004 6 304 1.6 4.8 0.00 0.00 0.00 71 1025.8
20190418032746 7 0.0 1.6 0.00 0.00 0.00 69 1025.3
20190418031654 7 302 0.0 3.2 0.00 0.00 0.00 69 1025.7
20190418030141 7 302 0.0 4.8 0.00 0.00 0.00 67 1025.7
20190418024613 8 129 1.6 11.3 0.00 0.00 0.00 66 1025.6
20190418023145 7 223 1.6 9.7 0.00 0.00 0.00 67 1025.7
20190418023047 7 223 1.6 9.7 0.00 0.00 0.00 67 1025.6
20190418022652 7 0.0 1.6 0.00 0.00 0.00 69 1025.8
20190418021708 7 302 0.0 3.2 0.00 0.00 0.00 69 1026.0
20190418021544 7 302 0.0 3.2 0.00 0.00 0.00 69 1025.9
20190418020155 7 302 0.0 3.2 0.00 0.00 0.00 68 1026.1
20190418014611 8 340 0.0 3.2 0.00 0.00 0.00 63 1026.0
20190418013152 9 55 0.0 3.2 0.00 0.00 0.00 63 1026.1
20190418012825 9 45 1.6 3.2 0.00 0.00 0.00 62 1026.0
20190418010054 9 148 1.6 4.8 0.00 0.00 0.00 62 1025.9
20190418004614 10 168 0.0 4.8 0.00 0.00 0.00 62 1026.0
20190418003037 10 122 3.2 12.9 0.00 0.00 0.00 61 1026.1
20190418001657 10 189 0.0 9.7 0.00 0.00 0.00 61 1026.1
20190418001515 10 191 0.0 9.7 0.00 0.00 0.00 61 1026.1
20190418000227 10 126 1.6 12.9 0.00 0.00 0.00 60 1026.3
20190417234635 10 57 0.0 12.9 0.00 0.00 0.00 60 1026.3
20190417233151 10 126 3.2 14.5 0.00 0.00 0.00 59 1026.2
20190417232558 10 135 4.8 12.9 0.00 0.00 0.00 59 1025.9
20190417230059 10 140 4.8 14.5 0.00 0.00 0.00 60 1026.0
20190417224635 11 54 3.2 8.0 0.00 0.00 0.00 60 1026.1
20190417223049 11 128 1.6 12.9 0.00 0.00 0.00 60 1026.1
20190417222650 11 135 3.2 4.8 0.00 0.00 0.00 60 1025.8
20190417221652 11 184 0.0 6.4 0.00 0.00 0.00 60 1026.0
20190417221510 11 184 1.6 9.7 0.00 0.00 0.00 59 1026.0
20190417220144 11 157 1.6 6.4 0.00 0.00 0.00 60 1025.8
20190417214614 11 119 3.2 14.5 0.00 0.00 0.00 59 1025.8
20190417213104 11 127 4.8 12.9 0.00 0.00 0.00 58 1025.5
20190417212558 11 112 3.2 8.0 0.00 0.00 0.00 57 1025.3
20190417201611 11 96 0.0 6.4 0.00 0.00 0.00 58 1025.4
20190417200052 11 98 1.6 9.7 0.00 0.00 0.00 57 1025.4
20190417194707 11 110 0.0 6.4 0.00 0.00 0.00 56 1025.4
20190417191649 11 30 0.0 4.8 0.00 0.00 0.00 55 1025.4
20190417190058 11 33 0.0 3.2 0.00 0.00 0.00 54 1025.3
20190417184623 12 74 0.0 4.8 0.00 0.00 0.00 53 1025.1
20190417183044 12 45 1.6 4.8 0.00 0.00 0.00 51 1024.9
20190417175231 14 45 1.6 6.4 0.00 0.00 0.00 45 1023.7
20190417174707 14 89 3.2 8.0 0.00 0.00 0.00 45 1024.7
20190417174627 14 22 3.2 8.0 0.00 0.00 0.00 45 1024.6
20190417173216 15 91 1.6 14.5 0.00 0.00 0.00 43 1024.5
20190417171628 15 22 3.2 9.7 0.00 0.00 0.00 42 1024.3
20190417171521 15 355 3.2 9.7 0.00 0.00 0.00 42 1024.3
20190417170151 16 34 1.6 17.7 0.00 0.00 0.00 40 1024.2
20190417164555 16 99 3.2 11.3 0.00 0.00 0.00 39 1024.1
20190417163035 16 74 4.8 14.5 0.00 0.00 0.00 37 1024.0
20190417161549 16 77 4.8 16.1 0.00 0.00 0.00 35 1023.9
20190417160048 17 86 3.2 11.3 0.00 0.00 0.00 34 1023.8
20190417154523 17 140 3.2 16.1 0.00 0.00 0.00 32 1023.7
20190417153025 17 44 3.2 12.9 0.00 0.00 0.00 31 1023.7
20190417152018 17 112 3.2 4.8 0.00 0.00 0.00 25 1022.8
20190417151524 17 113 3.2 9.7 0.00 0.00 0.00 26 1023.6
20190417150130 17 120 4.8 14.5 0.00 0.00 0.00 26 1023.5
20190417144647 17 133 4.8 16.1 0.00 0.00 0.00 26 1023.5
20190417143130 17 158 1.6 14.5 0.00 0.00 0.00 25 1023.6
20190417141533 17 128 4.8 14.5 0.00 0.00 0.00 26 1023.7
20190417140042 17 136 3.2 8.0 0.00 0.00 0.00 25 1023.7
20190417134535 17 142 4.8 12.9 0.00 0.00 0.00 25 1023.7
20190417133019 17 49 1.6 9.7 0.00 0.00 0.00 25 1023.8
20190417131819 17 67 6.4 11.3 0.00 0.00 0.00 26 1023.5
20190417131516 17 215 3.2 14.5 0.00 0.00 0.00 25 1024.0
20190417130107 17 128 3.2 14.5 0.00 0.00 0.00 29 1024.2
20190417124531 17 32 3.2 16.1 0.00 0.00 0.00 29 1024.4
20190417123011 17 64 6.4 19.3 0.00 0.00 0.00 26 1024.5
20190417121623 16 180 3.2 6.4 0.00 0.00 0.00 34 1024.0
20190417121532 16 95 4.8 14.5 0.00 0.00 0.00 25 1024.5
20190417120016 16 65 3.2 12.9 0.00 0.00 0.00 26 1024.6
20190417114707 16 217 3.2 16.1 0.00 0.00 0.00 33 1024.5
20190417111803 15 90 8.0 14.5 0.00 0.00 0.00 28 1024.3
20190417111747 16 34 1.6 14.5 0.00 0.00 0.00 30 1024.6